Погода в Кажлодке

Россия / Республика Мордовия     54°00′25″N   43°10′05″E
темп.,
°C
ветер,
м/с
пор.,
м/с
влажн.,
%
обл.,
%
осадки,
мм/ч
давл.,
гПа
погр.,
м
5 марта, пт
пт500:00−2с2498100 2.3 1000230
03:00−4ссв3497100 3.6 1000167
06:00−4сз2397100 1.1 100181
09:00−4сз5794100 1.9 1004463
12:00−4сз468997 0.1 1007601
15:00−3зсз468593 0.1 1009753
18:00−7з459116 0.0 101179
21:00−9зюз479516 0.0 1013111
6 марта, сб
сб600:00−11з44969 0.0 101469
03:00−13з34945 0.0 101628
06:00−15з229614 0.0 101720
09:00−12зсз119359 0.0 101726
12:00−8ююз118546 0.0 1016217
15:00−6ююз128723 0.0 1015234
18:00−10ююз239026 0.0 101421
21:00−11зюз339554 0.0 101522
7 марта, вс
вс700:00−10з349797 0.3 101591
03:00−14з339894 0.3 101430
06:00−15юз459748 0.0 101483
09:00−11юз6119358 0.0 1011343
12:00−6юз81482100 0.0 1008884
15:00−5ююз101681100 0.0 10041082
18:00−5юз101694100 1.3 9991103
21:00−3юз91595100 3.4 997955
8 марта, пн
пн800:00−6зсз81391100 0.8 998874
03:00−12юз6128767 0.8 1001243
06:00−11юз7158434 0.0 1000376
09:00−8юз8158533 0.0 998714
12:00−5зюз91489100 0.4 9971305
15:00−7з8128289 0.9 9981260
18:00−8зсз81488100 0.6 10011092
21:00−10з7149298 0.7 1005755
9 марта, вт
вт900:00−11з61293100 0.1 1007462
03:00−15з489799 0.1 1009146
06:00−17з349888 0.0 101170
09:00−15зсз369687 0.1 1012207
12:00−12зсз358998 0.0 1013547
15:00−11сз458799 0.1 1014786
18:00−14сз3695100 0.1 1014127
21:00−16ссз3498100 0.1 101780